Simultaneous Nadir Overpasses (SNOs) Predictions

Prediction of SNOs between GOES-14 and AQUA Satellite Orbit:

Table of predicted SNOs for the next 14.0 days since TLE Epoch: 12/7/2018
Index Date Time (GOES-14) GOES-14 Lat,Lon AQUA Lat,Lon Distance(km) Time Diff (sec)
1 12/09/2018 08:14:41 0.03,-104.21 -0.82,-100.24 451.29 80
2 12/09/2018 20:36:04 -0.01,-104.02 -0.32,-105.42 159.87 80
3 12/11/2018 20:26:33 -0.01,-104.02 0.35,-102.47 176.94 80
4 12/12/2018 08:47:50 -0.01,-104.23 0.69,-107.64 387.45 80
5 12/14/2018 08:35:38 -0.01,-104.23 0.08,-104.68 50.66 80
6 12/16/2018 08:20:46 -0.00,-104.24 -0.53,-101.72 286.23 80
7 12/16/2018 20:42:09 0.02,-104.02 -0.60,-106.90 327.34 80
8 12/18/2018 20:32:37 0.01,-104.03 0.02,-103.94 9.91 80
9 12/20/2018 20:20:25 0.01,-104.03 0.64,-100.98 346.81 80
10 12/21/2018 08:41:42 -0.02,-104.26 0.40,-106.15 215.55 80




NCC Satellite Simultaneous Nadir Overpasses (SNOs) Prediction Service
